Location: Chiroubles
(46.1812°N, 4.6660°E)
Time: 02:25:23
(UTC+00:00)

Cosmos 1437 Rocket - Pass Details

Date: 15 August 2020
Orbit: 505 x 563 km, 81.2° (Epoch: 19 September)

Event Time Altitude Azimuth Distance (km) Brightness Sun altitude
Rises 21:00:04 0° 345° (NNW) 2,624 7.4 -19.5°
Reaches altitude 10° 21:02:13 10° 341° (NNW) 1,731 6.3 -19.8°
Maximum altitude 21:05:56 55° 263° (W) 613 3.2 -20.2°
Enters shadow 21:06:59 39° 209° (SSW) 768 3.3 -20.3°
